Tracking 19969 objects as of 12-Nov-2019
Live streaming from Space Station
objects crossing your sky now
Track the group of recently launched Starlink satellites

H-2A R/B

Track H-2A R/B now!
10-day predictions


NORAD ID: 43682
Int'l Code: 2018-084L
Perigee: 525.0 km
Apogee: 606.4 km
Inclination: 98.9 °
Period: 95.8 minutes
Semi major axis: 6936 km
RCS: Unknown
Launch date: October 29, 2018
Source: Japan (JPN)
Launch site: TANEGASHIMA SPACE CENTER (TNSTA)

Note: This is a ROCKET BODY
aabbcc
Your satellite tracking list
Your tracking list is empty




NASA's NSSDC Master Catalog

Two Line Element Set (TLE):
1 43682U 18084L   19316.06219805 -.00000020  00000-0  46209-5 0  9994
2 43682  98.9010 125.8391 0058671 128.0054 232.6453 15.02711437 56858
Source of the keplerian elements: AFSPC